Date String (YYYY-MM-DD hh:mm:ss) UTC,Instrument flags,Ambient pressure (hPa),Sample flow (lpm),Bypass flow (lpm),Sample temperature (°C),Ambient temperature (°C),ASC tube jacket temperature (°C),LED temperature (°C),Box temperature (°C),Sample RH (%),Span deviation,Mass concentration (μg/m³),Mass concentration (μg/m³),Mass concentration (μg/m³)
DateTimeUTC,F1_M11,P_M11,Q1_M11,Q2_M11,T1_M11,T2_M11,T3_M11,T4_M11,T5_M11,U1_M11,ZSPAN_M11,X0_M11,X2_M11,X1_M11
2022-01-08 22:00:00,,0820.5,5.01,0.00,24.8,24.1,00.0,33.7,26.6,14.5,0000.0,0011.19,0006.04,0005.65
2022-01-08 22:01:00,,0820.6,5.00,0.00,24.8,24.1,00.0,33.7,26.6,14.5,0000.0,0010.95,0006.06,0005.66
2022-01-08 22:02:00,,0820.6,4.99,0.00,24.8,24.1,00.0,33.7,26.7,14.1,0000.0,0010.64,0006.06,0005.67
2022-01-08 22:03:00,,0820.6,4.99,0.00,24.8,24.1,00.0,33.7,26.7,13.7,0000.0,0011.53,0006.09,0005.69
2022-01-08 22:04:00,,0820.6,5.00,0.00,24.8,24.2,00.0,33.8,26.7,13.7,0000.0,0011.70,0006.11,0005.71
2022-01-08 22:05:00,,0820.6,5.01,0.00,24.8,24.2,00.0,33.8,26.7,14.0,0000.0,0011.86,0006.16,0005.75
2022-01-08 22:06:00,,0820.6,5.01,0.00,24.8,24.2,00.0,33.8,26.7,14.3,0000.0,0011.96,0006.21,0005.79
2022-01-08 22:07:00,,0820.6,5.00,0.00,24.8,24.1,00.0,33.8,26.7,14.3,0000.0,0011.88,0006.22,0005.82
2022-01-08 22:08:00,,0820.6,4.99,0.00,24.8,24.1,00.0,33.8,26.6,14.1,0000.0,0011.65,0006.24,0005.84
2022-01-08 22:09:00,,0820.6,5.00,0.00,24.8,24.0,00.0,33.8,26.6,14.3,0000.0,0011.18,0006.20,0005.84
2022-01-08 22:10:00,,0820.6,5.00,0.00,24.8,24.0,00.0,33.8,26.6,14.7,0000.0,0010.98,0006.26,0005.86
2022-01-08 22:11:00,,0820.6,4.99,0.00,24.8,24.1,00.0,33.8,26.6,14.6,0000.0,0010.92,0006.32,0005.88
2022-01-08 22:12:00,,0820.7,5.00,0.00,24.8,24.1,00.0,33.7,26.6,14.5,0000.0,0010.86,0006.35,0005.89
2022-01-08 22:13:00,,0820.7,5.01,0.00,24.7,24.0,00.0,33.7,26.6,14.5,0000.0,0010.88,0006.38,0005.91
2022-01-08 22:14:00,,0820.7,5.00,0.00,24.7,24.0,00.0,33.7,26.6,14.5,0000.0,0010.12,0006.40,0005.93
2022-01-08 22:15:00,,0820.7,4.99,0.00,24.7,24.1,00.0,33.7,26.6,14.6,0000.0,0010.18,0006.40,0005.96
2022-01-08 22:16:00,,0820.7,4.99,0.00,24.7,24.1,00.0,33.7,26.6,14.6,0000.0,0010.61,0006.41,0005.96
2022-01-08 22:17:00,,0820.7,5.00,0.00,24.7,24.0,00.0,33.7,26.6,14.7,0000.0,0010.85,0006.44,0005.96
2022-01-08 22:18:00,,0820.7,4.99,0.00,24.7,24.0,00.0,33.7,26.6,14.5,0000.0,0010.97,0006.47,0005.97
2022-01-08 22:19:00,,0820.7,5.00,0.00,24.7,24.0,00.0,33.7,26.5,14.4,0000.0,0011.11,0006.51,0005.98
2022-01-08 22:20:00,,0820.8,4.99,0.00,24.7,24.0,00.0,33.7,26.6,14.6,0000.0,0011.30,0006.56,0005.98
2022-01-08 22:21:00,,0820.9,5.00,0.00,24.7,24.1,00.0,33.7,26.6,14.5,0000.0,0011.99,0006.55,0005.98
2022-01-08 22:22:00,,0820.9,5.01,0.00,24.7,24.1,00.0,33.7,26.6,14.6,0000.0,0012.27,0006.54,0005.99
2022-01-08 22:23:00,,0820.9,5.00,0.00,24.8,24.1,00.0,33.7,26.6,14.5,0000.0,0012.95,0006.55,0006.01
2022-01-08 22:24:00,,0820.9,5.00,0.00,24.8,24.1,00.0,33.7,26.6,14.4,0000.0,0013.08,0006.58,0006.04
2022-01-08 22:25:00,,0820.9,4.99,0.00,24.8,24.1,00.0,33.7,26.6,14.4,0000.0,0013.21,0006.61,0006.05
2022-01-08 22:26:00,,0820.9,5.01,0.00,24.8,24.1,00.0,33.7,26.6,14.4,0000.0,0013.21,0006.63,0006.05
2022-01-08 22:27:00,,0821.0,5.00,0.00,24.7,24.1,00.0,33.7,26.6,14.5,0000.0,0013.11,0006.63,0006.06
2022-01-08 22:28:00,,0821.1,4.99,0.00,24.7,24.0,00.0,33.7,26.5,14.4,0000.0,0012.78,0006.61,0006.06
2022-01-08 22:29:00,,0821.1,4.99,0.00,24.7,23.9,00.0,33.7,26.5,14.4,0000.0,0012.71,0006.60,0006.07
2022-01-08 22:30:00,,0821.2,5.01,0.00,24.7,23.9,00.0,33.7,26.4,14.4,0000.0,0012.93,0006.61,0006.07
2022-01-08 22:31:00,,0821.1,5.00,0.00,24.6,23.9,00.0,33.7,26.4,14.5,0000.0,0013.32,0006.60,0006.07
2022-01-08 22:32:00,,0821.1,5.00,0.00,24.6,23.9,00.0,33.7,26.4,14.1,0000.5,0012.78,0006.59,0006.06
2022-01-08 22:33:00,,0821.1,5.01,0.00,24.6,23.9,00.0,33.7,26.4,14.4,0000.0,0012.59,0006.57,0006.04
2022-01-08 22:34:00,,0821.2,5.01,0.00,24.6,23.8,00.0,33.7,26.3,14.5,0000.0,0012.74,0006.54,0006.01
2022-01-08 22:35:00,,0821.1,5.00,0.00,24.6,23.7,00.0,33.6,26.3,14.5,0000.0,0012.36,0006.50,0005.99
2022-01-08 22:36:00,,0821.1,4.99,0.00,24.5,23.7,00.0,33.6,26.3,14.6,0000.6,0012.40,0006.47,0005.98
2022-01-08 22:37:00,,0821.1,4.98,0.00,24.5,23.7,00.0,33.6,26.3,14.7,0000.0,0012.50,0006.48,0005.98
2022-01-08 22:38:00,,0821.2,5.00,0.00,24.5,23.7,00.0,33.6,26.3,14.8,0000.0,0012.68,0006.49,0005.98
2022-01-08 22:39:00,,0821.2,5.00,0.00,24.5,23.8,00.0,33.6,26.3,14.6,-000.2,0012.66,0006.48,0005.97
2022-01-08 22:40:00,,0821.2,4.99,0.00,24.5,23.8,00.0,33.6,26.4,14.6,-000.1,0012.66,0006.47,0005.96
2022-01-08 22:41:00,,0821.3,5.00,0.00,24.5,23.8,00.0,33.6,26.3,14.5,-000.1,0012.65,0006.42,0005.94
2022-01-08 22:42:00,,0821.3,5.00,0.00,24.5,23.8,00.0,33.6,26.3,14.6,-000.2,0012.12,0006.42,0005.93
2022-01-08 22:43:00,,0821.4,5.01,0.00,24.5,23.9,00.0,33.6,26.4,14.7,0000.0,0012.17,0006.44,0005.93
2022-01-08 22:44:00,,0821.4,4.99,0.00,24.6,23.9,00.0,33.6,26.4,14.6,0000.0,0011.98,0006.41,0005.94
2022-01-08 22:45:00,,0821.4,5.01,0.00,24.6,24.0,00.0,33.6,26.4,14.0,0000.0,0010.93,0006.40,0005.93
2022-01-08 22:46:00,,0821.4,5.01,0.00,24.6,24.0,00.0,33.6,26.4,13.7,0000.0,0010.87,0006.35,0005.89
2022-01-08 22:47:00,,0821.4,5.00,0.00,24.6,24.0,00.0,33.6,26.4,14.1,0000.0,0010.72,0006.33,0005.87
2022-01-08 22:48:00,,0821.5,4.98,0.00,24.6,24.0,00.0,33.6,26.4,14.3,0000.0,0010.52,0006.31,0005.86
2022-01-08 22:49:00,,0821.5,5.01,0.00,24.6,24.0,00.0,33.6,26.4,14.4,0000.0,0010.07,0006.29,0005.86
2022-01-08 22:50:00,,0821.5,4.99,0.00,24.6,24.0,00.0,33.6,26.4,14.3,0000.0,0010.43,0006.30,0005.86
2022-01-08 22:51:00,,0821.6,5.01,0.00,24.6,24.0,00.0,33.6,26.5,14.2,-000.0,0010.87,0006.31,0005.87
2022-01-08 22:52:00,,0821.6,4.99,0.00,24.6,24.0,00.0,33.6,26.5,14.2,0000.0,0010.58,0006.29,0005.87
2022-01-08 22:53:00,,0821.6,5.01,0.00,24.6,24.1,00.0,33.6,26.5,14.2,0000.0,0010.69,0006.28,0005.87
2022-01-08 22:54:00,,0821.7,4.99,0.00,24.7,24.1,00.0,33.6,26.5,14.7,0000.0,0010.70,0006.25,0005.86
2022-01-08 22:55:00,,0821.7,5.00,0.00,24.7,24.1,00.0,33.6,26.5,15.1,0000.0,0011.29,0006.27,0005.86
2022-01-08 22:56:00,,0821.8,5.01,0.00,24.7,24.1,00.0,33.6,26.5,14.9,0000.0,0012.00,0006.30,0005.87
2022-01-08 22:57:00,,0821.8,4.98,0.00,24.7,24.1,00.0,33.6,26.6,14.8,0000.0,0012.23,0006.35,0005.91
2022-01-08 22:58:00,,0821.8,5.01,0.00,24.7,24.1,00.0,33.6,26.6,15.0,0000.0,0012.17,0006.34,0005.93
2022-01-08 22:59:00,,0821.8,5.00,0.00,24.7,24.1,00.0,33.6,26.6,15.1,0000.0,0012.11,0006.35,0005.95
